Weather in Molchanovo

Russia / Amur Oblast     51°22′28″N   128°20′37″E
temp.,
°C
wind,
m/s
gust,
m/s
humid.,
%
clouds,
%
prec.,
mm/h
press.,
hPa
HPBL,
m
9 march, tue
tue900:00−4ssw51090100 0.3 1006268
03:00−7wsw3493100 0.6 100438
06:00−9nw5109149 0.0 1005208
09:00−9nnw8148474 0.0 1009563
12:00−7nnw9147891 0.0 1013801
15:00−3nnw9147646 0.0 10161076
18:00−5nw715750 0.0 1019630
21:00−9nw512790 0.0 1022216
10 march, wed
wed1000:00−12nw46830 0.0 102494
03:00−14w23850 0.0 102420
06:00−13ssw348438 0.0 102364
09:00−9s6118069 0.0 1021336
12:00−5ssw71282100 0.0 1018766
15:00−1ssw71176100 0.0 10151334
18:00−4wsw349199 0.3 1015102
21:00−5wnw5128966 0.3 1018315
11 march, thu
thu1100:00−9nw512870 0.0 1021242
03:00−11nw49770 0.0 1025148
06:00−14nw46780 0.0 102899
09:00−10nw37760 0.0 1029197
12:00−4wsw23660 0.0 1029476
15:00−3ssw46721 0.0 1027861
18:00−7s47871 0.0 1026135
21:00−10s45891 0.0 102777
12 march, fri
fri1200:00−10ssw34920 0.0 102745
03:00−11ssw33920 0.0 102730
06:00−12sw22930 0.0 102721
09:00−8s34930 0.0 1026118
12:00−3s58920 0.0 1024343
15:000ssw611945 0.0 1021588
18:000sw34890 0.0 101976
21:00−4ssw46870 0.0 102095
13 march, sat
sat1300:00−5ssw46860 0.0 101894
03:00−6ssw45830 0.0 101778
06:00−7ssw457936 0.0 101674
09:00−4ssw498044 0.0 1016278
12:00+1ssw3799100 0.0 1015317
15:00+1s2310066 0.0 101379
18:000ssw3599100 0.0 1012157
21:00−3ssw348689 0.0 101268